581  
ASUS46 KPDT 071910  
RWRPDT  
PENDLETON REGIONAL WEATHER ROUNDUP  
NATIONAL WEATHER SERVICE PENDLETON OREGON  
1200 PM PDT SUN AUG 7 2022  
 
NOTE: FAIR INDICATES FEW OR NO CLOUDS BELOW 12,000 FEET WITH NO  
SIGNIFICANT WEATHER AND/OR S TO VISIBILITY
.  
 
# INDICATES UNOFFICIAL STATION AND DATA  
 
WAZ520-072010-  
EAST SLOPES OF WASHINGTON CASCADES  
 
CITY SKY/WX TMP DP RH WIND PRES REMARKS
 
#BULLFROG N/A 80 50 35 E1 N/A  
#CLE ELUM HS N/A 80 47 31 SE1 30.04S  
#ELK HTS DOT N/A 83 82 97 NE2 N/A  
#GLENWOOD N/A 84 51 32 CALM 30.04F  
#NILE N/A 82 50 33 N2 29.45F  
#TROUT LAKE 1E N/A 83 46 27 SW1 30.13S  

 
 
WAZ521-072010-  
SIMCOE HIGHLANDS  
 
CITY SKY/WX TMP DP RH WIND PRES REMARKS
 
#SATUS PASS DOT N/A 82 37 20 NE3 N/A  
#CENTERVILLE 1SWN/A 85 41 21 SE10 29.97F  
#LYLE 6NE N/A 79 49 35 CALM 30.01F  
#PITT 4SE N/A 81 40 23 CALM 30.03S  

 
 
WAZ026-072010-  
KITTITAS VALLEY  
 
CITY SKY/WX TMP DP RH WIND PRES REMARKS
 
ELLENSBURG AP FAIR 85 50 30 CALM 30.11F  
#ELLENSBURG CWU N/A 81 54 39 CALM 29.98F  
#ELLENSBURG 1E N/A 76 58 54 CALM 30.05F  
#MANASTASH RDG N/A 80 48 33 N3 N/A  
#ROCKY CYN DOT N/A 81 56 42 E6 N/A  
#RYEGRASS DOT N/A 82 50 33 NE8 N/A  
#THORP 6N N/A 82 53 37 CALM 29.94F  

 
 
WAZ027-072010-  
YAKIMA VALLEY  
 
CITY SKY/WX TMP DP RH WIND PRES REMARKS
 
SUNNYSIDE AP FAIR 82 53 37 CALM 30.07F  
YAKIMA AIRPORT FAIR 87 45 23 CALM 30.08F  
#MABTON N/A 81 56 42 CALM 30.06F  
#NACHES 2SW N/A 79 56 45 CALM 30.14S  
#OUTLOOK DOT N/A 83 47 28 CALM N/A  
#TERRACE HTS N/A 87 53 31 CALM 29.99F  
#TOPPENISH N/A 82 52 35 CALM 29.96S  
#I82 S UMTANUM RN/A 83 49 31 SW6 N/A  
#UNION GAP DOT N/A 83 50 32 E1 N/A  
#ZILLAH DOT N/A 83 46 27 SW3 N/A  

 
 
WAZ028-072010-  
LOWER COLUMBIA BASIN...WASHINGTON  
 
CITY SKY/WX TMP DP RH WIND PRES REMARKS
 
HANFORD SUNNY 87 38 18 NE3 30.00F  
PASCO FAIR 87 50 28 CALM 30.05F  
PROSSER AWOS N/A 86 46 25 CALM 30.08F  
RICHLAND AWOS FAIR 88 45 23 N3 30.05F  
#BASIN CITY 5SW N/A 82 56 41 E1 30.08S  
#BENTON CITY N/A 86 51 30 CALM 29.94F  
#CONNELL 5N N/A 86 44 23 CALM 30.04S  
#ELTOPIA 6NW N/A 86 57 37 CALM 29.05F  
#KAHLOTUS N/A 85 43 23 CALM 30.03S  
#KENNEWICK 3S N/A 82 52 35 CALM 30.03F  
#PROSSER DOT N/A 84 42 23 CALM N/A  
#SAGEMOOR 2W N/A 82 58 44 CALM 30.02F  
#TOUCHET 2S N/A 83 54 37 NW2 30.01F  

 
 
WAZ029-072010-  
FOOTHILLS OF THE BLUES...WASHINGTON  
 
CITY SKY/WX TMP DP RH WIND PRES REMARKS
 
WALLA WALLA AP FAIR 85 39 20 SW5 30.06F  
#CLYDE 6NW N/A 85 42 22 N7 30.08F  
#LOWDEN 2SE N/A 84 49 30 W1 30.01F  
#PRESCOTT N/A 90 43 20 CALM 30.01F HX 86  
#WALLA WALLA 5E N/A 87 49 27 W3 N/A  
#WHITMAN MISSIONN/A 82 49 32 W3 30.09F  

 
 
WAZ030-072010-  
BLUE MOUNTAINS...WASHINGTON  
 
CITY SKY/WX TMP DP RH WIND PRES REMARKS
 

 
 
ORZ009-041-WAZ024-072010-  
COLUMBIA RIVER GORGE  
 
CITY SKY/WX TMP DP RH WIND PRES REMARKS
 
HOOD RIVER AP FAIR 82 52 35 CALM 30.04F  
THE DALLES AP FAIR 86 41 21 CALM 30.02F  
#CELILO DOT N/A 83 54 37 NW1 N/A  
#RUFUS DOT N/A 81 38 21 NE3 N/A  
 

 
 
ORZ510-072010-  
NORTH CENTRAL OREGON  
 
CITY SKY/WX TMP DP RH WIND PRES REMARKS
 
#COW CYN RST AREN/A 80 28 15 SE2 N/A  
#DUFUR N/A 83 45 26 NE3 29.99S  
#DUFUR 9E N/A 80 38 22 SE7 30.05S  
#GRASS VALLEY 1SN/A 84 37 19 E3 29.96F  
#KENT DOT N/A 83 40 22 CALM N/A  
#SHANIKO 5WSW N/A 81 23 12 N3 N/A  
#WAPANITIA AIRPON/A 82 38 21 CALM 30.02F  
#WASCO DOT N/A 87 35 16 E6 N/A  
#WASCO 5NE N/A 82 38 21 N6 30.00F  

 
 
ORZ511-072010-  
CENTRAL OREGON  
 
CITY SKY/WX TMP DP RH WIND PRES REMARKS
 
BEND AIRPORT FAIR 86 28 12 N6 30.15F  
MADRAS AIRPORT FAIR 81 32 17 N6 30.13F  
PRINEVILLE AP FAIR 84 28 13 VRB3 30.13F  
REDMOND AIRPORT FAIR 85 35 17 VRB7 30.12F  
#ASHWOOD SCHOOL N/A 83 35 18 N6 30.06F  
#CULVER N/A 78 35 21 CALM 29.43F  
#PRINEVILLE N/A 80 42 26 SW1 30.06F  
 

 
 
 
ORZ509-072010-  
EAST SLOPES OF OREGON CASCADES  
 
CITY SKY/WX TMP DP RH WIND PRES REMARKS
 
SISTERS AWOS N/A 81 36 20 N6 30.10S  
SUNRIVER AWOS FAIR 79 36 21 CALM 30.22F  
#BLUE BOX PASS N/A 77 N/A N/A E1 N/A  
#CAMP SHERMAN N/A 85 37 18 CALM 30.03F  
#SISTERS ODOT N/A 82 30 15 CALM N/A  
#WANOGA BUTTE D N/A 75 29 18 SE2 N/A  
 

 
 
ORZ044-072010-  
LOWER COLUMBIA BASIN...OREGON  
 
CITY SKY/WX TMP DP RH WIND PRES REMARKS
 
HERMISTON FAIR 87 43 22 VRB5 30.05F  
#BOARDMAN SCHOOLN/A 78 48 35 CALM 30.00F  
#ECHO 8SW N/A 81 50 34 W2 30.10F  
#I-84 EX 198 DOTN/A 83 55 38 E8 N/A  
#UMATILLA N/A 83 49 31 CALM 29.96S  

 
 
ORZ507-072010-  
NORTHERN FOOTHILLS OF THE BLUES  
 
CITY SKY/WX TMP DP RH WIND PRES REMARKS
 
PENDLETON AIRPT FAIR 90 33 13 VRB6 30.08F HX 86  
#CAYUSE N/A 84 44 25 SW2 29.99F  
#HELIX SCHOOL N/A 83 41 23 N3 30.03S  
#HOLDMAN 5SE N/A 86 46 25 W3 30.07F  
#HOLDMAN 6E N/A 86 41 21 CALM 29.82S  
#M-FREEWATER 5SEN/A 83 50 32 NW3 30.06F  
#PDT SUNRIDGE N/A 85 42 22 CALM 30.03F  
#PENDLETON 6SE N/A 85 45 25 CALM 29.97F  
#TUTUILLA N/A 84 44 25 NE1 30.14S  
#UMAPINE 2E N/A 81 56 42 CALM 30.02F  
 

 
 
ORZ508-072010-  
SOUTHERN FOOTHILLS OF THE BLUES  
 
CITY SKY/WX TMP DP RH WIND PRES REMARKS
 
#AJAX N/A 82 38 21 N8 30.11S  
#HEPPNER EOC N/A 83 40 22 CALM 29.94F  
#HEPPNER 4NE N/A 80 41 25 NE5 30.00F  
#OLEX 4N N/A 82 39 22 CALM 30.02F  
#RUGGS 2SW N/A 83 34 17 E5 30.04F  
 

 
 
ORZ502-503-072010-  
BLUE MOUNTAINS  
 
CITY SKY/WX TMP DP RH WIND PRES REMARKS
 
MEACHAM FAIR 80 29 15 CALM 30.19F  
#BATTLE MTN DOT N/A 75 43 32 S3 N/A  
#LADD CYN SMT N/A 79 41 26 CALM N/A  
#LADD CREEK ODOTN/A 72 51 48 E9 N/A  
#N POWDER DOT N/A 79 46 31 W1 N/A  
#TOLLGATE N/A 69 37 31 N5 30.27S  
#TROY SCHOOL N/A 80 48 33 CALM 29.87F  
#WESTON 4E N/A 81 44 27 CALM 29.98F  

 
 
ORZ505-072010-  
JOHN DAY BASIN  
 
CITY SKY/WX TMP DP RH WIND PRES REMARKS
 
JOHN DAY FAIR 84 31 15 N3 30.17F  
#DAYVILLE SCHOOLN/A 81 41 24 E1 30.07F  
#MITCHELL 8NW N/A 78 35 21 CALM 30.01F  
#MONUMENT HS N/A 78 36 22 NW1 29.91F  
#MT. VERNON 5SE N/A 78 35 21 CALM 30.20F  

 
 
ORZ506-072010-  
OCHOCO AND JOHN DAY HIGHLANDS  
 
CITY SKY/WX TMP DP RH WIND PRES REMARKS
 
#BUCK CREEK DOT N/A 82 32 16 SE9 N/A  
#HORSE RIDGE DO N/A 81 29 15 N6 N/A  
#KEYES SMT DOT N/A 77 31 19 SE3 N/A  
#PAULINA ODOT N/A 83 32 16 E3 N/A  
#PRAIRIE CITY N/A 84 33 16 CALM 30.09F  
#SENECA 9NW N/A 77 37 24 N1 30.04F  

 
 
ORZ049-072010-  
GRANDE RONDE VALLEY  
 
CITY SKY/WX TMP DP RH WIND PRES REMARKS
 
LA GRANDE FAIR 77 43 30 N5 30.17F  
#COVE SCHOOL N/A 73 47 40 CALM 30.18S  
#COVE 6NW N/A 75 48 38 CALM 30.04F  
#ELGIN 1E N/A 81 41 24 CALM N/A  
#IMBLER SCHOOL N/A 73 44 35 CALM 30.12F  
#ISLAND CITY 4N N/A 85 61 45 S1 29.97S  
#LADD CYN DOT N/A 75 54 48 N5 N/A  
#UNION 1S N/A 72 48 43 CALM 30.07F  

 
 
ORZ050-072010-  
WALLOWA COUNTY  
 
CITY SKY/WX TMP DP RH WIND PRES REMARKS
 
JOSEPH AIRPORT FAIR 81 31 16 MISG 30.23S  
#ENTERPRISE HS N/A 78 40 26 CALM 29.94F  
#JOSEPH 3N N/A 75 36 24 NW1 30.22F  
#LOSTINE 3SE N/A 77 46 33 E2 30.27F  
#MT HOWARD 8000 N/A 61 36 39 CALM 30.42S  
#WALLOWA LAKE N/A 76 41 28 N2 30.27F  
 

 
 
CLICK HERE TO GO TO PREVIOUS BULLETINS.

The Nexlab OR Page
The Nexlab WA Page Main Text Page